This is the latest recevied weather packets stored in our database for station/object DG1ROH. If no packets are shown the sender has not sent any weather packets the latest 1 day(s).
| Time | Temp. | Humidity | Pressure | Rain* | Wind** | Luminosity | Snow |
|---|---|---|---|---|---|---|---|
| 1777992067 | 17.22° C | 80% | 1007.9 hPa | 0 mm | 0.89 m/s, 59° | 132 W/m² | - |
| 1777991947 | 17.22° C | 79% | 1007.8 hPa | 0 mm | 0.89 m/s, 326° | 149 W/m² | - |
| 1777991827 | 17.78° C | 79% | 1007.8 hPa | 0 mm | 0.89 m/s, 34° | 207 W/m² | - |
| 1777991707 | 17.78° C | 79% | 1007.8 hPa | 0 mm | 0.89 m/s, 326° | 244 W/m² | - |
| 1777991587 | 17.78° C | 80% | 1007.9 hPa | 0 mm | 0.89 m/s, 323° | 258 W/m² | - |
| 1777991467 | 17.22° C | 80% | 1007.9 hPa | 0 mm | 0.89 m/s, 312° | 236 W/m² | - |
| 1777991343 | 17.22° C | 80% | 1007.8 hPa | 0 mm | 0.89 m/s, 25° | 244 W/m² | - |
| 1777991223 | 17.22° C | 81% | 1007.8 hPa | 0 mm | 0.89 m/s, 76° | 332 W/m² | - |
| 1777991103 | 17.22° C | 80% | 1007.8 hPa | 0 mm | 0.89 m/s, 58° | 309 W/m² | - |
| 1777990983 | 17.22° C | 81% | 1007.8 hPa | 0 mm | 0.89 m/s, 11° | 468 W/m² | - |
| 1777990863 | 17.22° C | 83% | 1007.9 hPa | 0 mm | 0.45 m/s, 342° | 221 W/m² | - |
| 1777990743 | 16.67° C | 82% | 1007.9 hPa | 0 mm | 0.45 m/s, 346° | 206 W/m² | - |
| 1777990623 | 16.67° C | 82% | 1008 hPa | 0 mm | 0.45 m/s, 342° | 169 W/m² | - |
| 1777990503 | 16.67° C | 82% | 1008 hPa | 0 mm | 0.45 m/s, 349° | 128 W/m² | - |
| 1777990385 | 16.67° C | 82% | 1008 hPa | 0 mm | 0.45 m/s, 344° | 114 W/m² | - |
| 1777990265 | 16.67° C | 82% | 1008 hPa | 0 mm | 0.45 m/s, 343° | 104 W/m² | - |
| 1777990145 | 16.67° C | 83% | 1008 hPa | 0 mm | 0.45 m/s, 346° | 97 W/m² | - |
| 1777990025 | 16.67° C | 82% | 1008 hPa | 0 mm | 0.89 m/s, 355° | 98 W/m² | - |
| 1777989904 | 16.67° C | 82% | 1008 hPa | 0 mm | 0.89 m/s, 355° | 95 W/m² | - |
| 1777989785 | 16.67° C | 82% | 1008 hPa | 0 mm | 0.89 m/s, 30° | 90 W/m² | - |
| 1777989670 | 16.67° C | 83% | 1008 hPa | 0 mm | 1.34 m/s, 322° | 100 W/m² | - |
| 1777989539 | 16.67° C | 83% | 1008.1 hPa | 0 mm | 1.34 m/s, 323° | 114 W/m² | - |
| 1777989419 | 16.67° C | 83% | 1008 hPa | 0 mm | 1.34 m/s, 350° | 135 W/m² | - |
| 1777989299 | 16.67° C | 82% | 1008.1 hPa | 0 mm | 0.89 m/s, 351° | 139 W/m² | - |
| 1777989180 | 16.67° C | 82% | 1008.1 hPa | 0 mm | 0.89 m/s, 19° | 141 W/m² | - |
* Rain latest hour (hover to see other rain measurements)
** Current wind speed in m/s (hover to see current wind gust speed)